GFSWCAN_500_spd_273.txt.gz
Wind_Speed
33 31 29 29 26 26 26 25 26 24 20 19 19 21 27 38 34 31 27 24 24 21 22 19 18 18 20 23 28 33 41 47 42 40 38 35 35 37 38 40 41 38 39 39 36 37 38 35 33 29 21 19 16 18
31 32 28 29 27 28 27 26 27 25 20 18 17 23 27 41 35 33 29 26 24 25 23 20 17 18 19 19 20 26 31 39 42 43 39 39 40 39 38 39 38 42 43 41 44 43 41 39 38 36 31 26 18 18
30 31 30 28 27 28 29 28 27 24 19 17 17 18 27 43 36 33 30 27 24 24 26 21 22 20 20 21 25 22 27 31 34 36 41 40 38 35 35 36 36 35 35 40 41 46 47 45 42 40 38 35 25 21
32 31 32 30 28 27 29 28 27 23 17 16 16 17 24 41 35 32 29 28 25 24 25 25 22 22 20 21 20 21 23 25 25 26 32 31 30 31 32 32 34 34 38 37 38 41 46 49 49 46 42 37 30 24
34 35 33 30 29 27 28 27 26 19 15 16 14 16 21 38 34 30 27 26 25 24 24 27 24 22 20 23 23 23 25 27 28 28 28 29 30 31 30 33 32 30 30 33 30 33 39 40 41 46 48 45 37 30
34 35 30 30 29 28 27 27 25 17 14 16 16 16 18 36 36 34 31 25 26 24 25 25 26 24 21 22 25 25 27 27 25 25 27 27 28 33 34 33 32 34 35 32 34 30 31 36 37 33 32 33 32 34
34 34 30 31 30 30 29 26 24 17 15 16 17 17 18 26 40 35 38 31 27 26 27 25 26 25 23 24 25 26 26 25 25 24 24 26 28 30 27 20 16 26 29 31 34 35 32 31 32 32 33 36 35 32
35 34 32 31 31 30 28 25 22 16 15 17 18 19 19 21 32 38 36 37 30 28 29 27 25 24 22 23 25 27 26 25 23 23 24 25 25 25 18 11 24 29 31 30 33 35 35 34 34 36 35 35 35 33
35 33 31 32 33 31 27 24 23 17 17 18 20 20 22 22 23 35 39 37 38 30 28 25 25 23 21 20 23 26 26 26 23 19 19 23 21 16 16 20 22 26 27 27 26 27 29 36 40 38 35 32 34 37
33 32 31 33 33 32 27 25 23 19 18 20 20 20 21 21 25 30 38 39 40 33 27 24 25 24 21 20 24 27 26 24 21 17 19 16 13 18 20 19 22 25 21 22 22 25 27 31 34 35 34 32 30 28
33 31 31 33 35 32 27 23 23 21 19 20 20 21 20 20 25 33 38 38 36 32 27 27 26 24 22 20 24 28 29 27 23 19 19 11 13 19 19 19 20 20 25 23 21 23 24 26 30 31 34 34 34 34
37 38 40 38 32 29 27 23 23 21 20 21 21 23 22 23 27 35 38 39 35 31 28 29 27 24 22 20 23 25 26 28 26 22 20 12 14 11 11 14 17 18 21 21 20 21 20 22 24 29 32 32 33 33
41 42 39 33 31 29 26 24 23 21 22 24 25 27 26 27 31 37 37 31 26 30 32 31 29 26 22 23 21 24 27 27 27 26 22 18 15 14 9 10 13 14 12 14 17 18 20 18 17 21 21 24 26 28
38 35 30 28 28 26 24 23 24 23 25 28 28 30 31 30 31 36 33 31 30 30 31 29 27 29 25 25 26 24 26 29 30 26 25 23 20 18 15 12 11 11 12 12 13 16 18 15 12 18 17 20 20 16
30 30 30 27 26 24 24 24 24 25 29 33 32 33 33 29 29 31 33 34 34 32 32 30 28 28 28 30 29 28 28 27 22 21 23 24 24 24 21 17 15 12 11 9 10 11 14 16 15 15 18 19 13 11
28 30 30 28 27 26 25 25 25 28 33 36 37 33 30 31 29 31 31 32 32 33 32 32 30 31 32 34 31 30 29 23 21 20 22 24 26 28 27 24 22 20 19 16 13 13 12 15 17 15 17 18 14 12
30 30 30 31 28 26 24 25 26 31 35 37 33 31 32 32 31 29 29 29 29 32 28 30 31 32 33 33 30 30 26 24 22 22 23 23 25 27 27 27 26 25 24 23 21 20 20 19 20 19 17 14 11 11
34 32 31 30 27 25 25 25 28 33 37 30 30 31 33 33 33 33 33 30 29 28 29 30 31 31 31 28 27 24 23 23 23 25 26 25 26 28 29 28 27 26 24 22 21 21 22 25 23 25 21 15 12 11
34 32 28 26 25 24 26 26 29 32 33 31 31 29 27 31 33 34 35 29 31 31 29 29 34 34 29 27 26 24 23 24 25 26 25 23 23 26 28 27 27 26 26 24 24 26 27 27 32 27 29 20 16 15
31 28 25 24 25 25 26 27 29 30 32 33 32 34 29 26 28 31 33 35 33 31 33 34 35 29 30 26 25 25 23 24 25 25 25 23 23 24 24 25 28 29 27 27 27 26 28 27 30 34 32 22 19 16
25 23 23 23 23 23 27 28 28 29 32 36 33 35 36 31 29 32 34 38 37 33 33 35 31 29 29 24 27 26 24 25 25 26 25 25 24 23 22 23 26 25 26 26 21 19 21 21 17 23 27 24 20 20
20 19 19 20 20 22 22 27 32 33 33 36 36 33 37 34 34 32 36 41 43 38 31 28 27 32 33 35 33 30 28 28 26 26 26 25 24 24 24 22 22 22 17 17 18 23 22 21 17 27 26 27 24 24
19 17 17 17 15 16 15 17 24 29 32 33 34 34 36 35 32 34 36 39 38 33 35 34 31 34 34 34 31 30 30 29 26 25 25 24 19 21 20 19 18 18 15 16 20 16 15 19 23 28 30 28 25 23
18 16 15 13 14 14 14 14 16 18 24 28 29 31 36 37 35 33 32 32 31 31 32 33 34 34 31 30 29 31 32 29 27 25 24 24 22 21 20 19 19 18 17 14 15 13 14 14 17 20 24 24 25 28
16 16 14 14 14 15 14 12 12 11 13 16 20 27 33 38 37 36 35 35 35 34 35 35 34 33 31 29 32 34 33 32 30 28 27 25 24 23 23 19 18 19 18 18 12 11 13 14 13 16 19 23 25 25
17 16 15 16 17 17 15 14 13 10 8 10 13 18 25 34 37 36 36 35 33 35 35 34 33 33 34 35 33 34 35 34 32 32 30 28 27 26 25 21 19 19 19 21 18 12 13 14 17 16 18 25 23 23
16 16 18 20 20 19 18 18 17 15 13 10 9 14 19 23 29 33 36 37 35 34 34 34 33 34 34 35 37 37 34 33 33 34 33 31 29 28 27 23 21 21 19 19 19 15 13 15 18 17 17 19 24 23
11 12 14 15 16 17 19 20 20 20 20 18 17 17 14 14 16 23 30 34 35 34 34 34 32 31 33 36 37 37 35 33 32 31 30 29 29 30 28 24 23 21 21 19 18 19 17 15 11 13 15 21 24 24
4 4 5 8 10 12 14 16 18 24 27 26 24 23 20 20 21 21 22 24 27 30 32 31 29 29 30 32 34 34 33 32 31 31 30 28 29 28 28 27 26 25 24 22 20 19 20 18 17 15 14 19 21 27
6 6 5 4 5 6 8 8 11 10 11 15 21 26 27 26 28 31 31 31 30 29 29 30 31 31 30 30 31 31 31 31 31 29 27 26 28 29 30 30 28 27 27 26 23 20 20 21 21 20 16 13 16 16
8 9 10 10 14 14 13 13 16 17 19 20 22 22 22 26 30 34 36 37 37 36 36 35 34 34 34 34 34 33 32 32 31 28 26 26 26 28 29 30 30 27 25 25 24 24 23 23 23 23 22 20 18 19
10 11 12 13 14 15 16 16 19 23 27 26 27 28 30 31 31 30 31 32 32 34 36 38 39 38 39 39 39 38 36 34 33 30 28 28 28 28 29 29 28 27 25 23 22 24 25 25 25 24 21 23 23 22
16 19 19 18 15 10 11 14 17 19 18 19 20 24 26 27 26 28 37 42 40 36 35 34 34 35 36 38 41 42 42 39 36 34 32 31 30 30 30 29 28 26 24 24 23 24 26 25 25 25 25 24 23 23

GFSWCAN_500_spd_276.txt.gz
Wind_Speed
26 25 24 25 25 25 24 25 24 24 25 25 20 19 21 22 25 32 32 29 27 25 25 22 21 20 20 21 24 23 26 31 39 39 29 26 34 25 34 34 30 31 26 23 27 27 25 29 29 29 25 25 23 16
28 28 27 24 26 25 26 26 25 25 26 25 18 17 18 21 20 35 33 30 27 25 24 21 19 20 22 23 22 26 26 29 36 41 41 38 30 29 27 28 29 32 38 29 27 25 31 36 37 35 33 31 28 23
30 31 28 27 28 24 26 26 25 24 26 25 16 15 16 20 21 38 33 31 28 25 25 23 21 20 21 22 22 20 22 27 31 36 39 40 38 36 35 32 36 35 35 40 41 37 43 44 42 43 41 38 36 31
29 31 30 30 28 23 25 25 25 25 24 23 16 14 15 19 25 41 36 33 30 26 24 25 25 22 21 21 20 21 21 22 25 31 33 33 36 38 41 38 37 37 34 38 38 35 37 42 42 42 45 45 41 34
31 31 32 32 28 25 24 24 25 25 23 20 14 13 13 17 21 41 36 33 31 28 25 24 24 24 22 22 22 24 23 25 24 27 27 28 31 32 36 32 32 31 31 31 33 38 36 40 39 40 42 42 44 45
29 32 33 31 30 27 24 24 26 23 21 18 15 14 13 14 19 36 36 31 30 28 25 25 23 24 22 22 22 23 25 25 23 25 27 27 25 28 30 31 27 27 29 32 35 36 33 35 36 37 38 39 38 38
31 34 32 30 31 27 24 25 25 23 20 18 16 16 16 16 19 33 38 33 29 28 26 25 24 23 23 25 23 23 24 26 26 25 24 25 26 29 27 23 22 30 33 36 36 37 37 34 37 36 35 34 32 33
35 33 34 32 30 27 24 25 24 24 21 19 17 18 18 18 21 26 40 38 34 29 27 26 25 24 23 24 24 25 25 27 27 25 23 24 25 26 23 14 23 31 32 32 31 31 31 32 34 37 35 33 32 33
33 31 32 31 28 27 26 24 27 25 23 20 18 20 20 20 20 23 37 40 37 39 31 24 25 28 25 24 23 25 27 28 29 26 24 24 23 21 19 21 26 31 30 27 25 29 30 31 33 38 40 36 35 35
36 33 33 31 30 28 29 30 32 25 24 21 19 21 20 20 22 24 26 40 41 38 37 26 27 29 27 25 24 24 25 27 28 27 25 23 20 19 22 21 23 26 25 24 23 22 20 25 26 29 31 31 32 34
35 35 34 30 31 30 32 30 25 24 24 23 20 22 22 23 23 27 29 31 38 35 33 32 31 29 27 25 25 25 25 26 26 26 24 21 17 19 18 18 20 23 25 23 19 21 19 18 19 19 21 24 27 29
31 33 33 33 33 36 33 28 25 24 24 24 21 24 26 26 28 30 32 34 35 34 32 35 34 30 28 26 26 25 25 28 27 27 25 21 21 17 14 14 14 18 22 23 21 20 20 17 16 17 18 21 20 21
33 32 34 33 35 31 25 23 24 23 25 26 24 28 30 31 34 33 31 33 34 33 30 34 34 33 29 28 27 26 27 25 26 28 25 25 22 19 17 14 13 13 15 15 13 15 17 17 16 15 15 14 12 15
34 34 33 33 28 26 26 24 23 24 26 28 27 32 35 36 33 26 23 25 31 33 34 36 30 32 31 30 30 29 28 26 26 25 24 28 26 23 20 18 15 13 12 13 11 12 13 14 13 13 14 12 10 8
33 32 28 26 26 27 26 25 24 25 29 30 30 34 34 30 29 29 25 25 31 34 31 32 35 34 33 35 33 31 30 28 22 22 26 23 26 28 25 21 19 14 13 11 9 11 11 11 13 12 10 11 12 9
32 30 26 26 27 27 27 28 29 29 31 32 31 30 30 30 30 30 27 26 30 33 33 32 31 34 35 36 36 34 32 27 24 20 19 21 25 27 28 28 25 21 17 16 14 12 10 8 9 13 13 13 15 15
28 27 25 27 30 28 28 30 31 32 34 32 26 26 31 34 32 30 30 28 27 30 32 35 37 36 33 35 34 33 28 27 22 23 22 23 25 28 29 29 28 26 25 23 22 22 20 17 12 10 11 10 9 11
32 30 30 32 31 30 30 31 33 34 33 27 22 28 32 33 32 31 31 30 29 27 29 33 33 37 35 32 29 30 28 27 27 26 27 27 26 28 29 30 29 27 26 24 23 22 23 22 20 17 13 13 11 11
28 30 31 32 32 32 32 33 32 32 29 25 23 28 33 32 32 33 33 32 30 33 30 32 37 34 33 32 29 30 30 31 30 29 28 27 25 25 26 27 28 28 26 24 22 22 21 20 20 20 17 18 15 17
31 32 31 32 32 32 32 32 30 30 28 25 26 29 33 33 32 31 34 35 31 31 36 34 33 38 27 33 27 27 29 29 29 28 27 26 25 24 25 26 27 28 27 25 23 21 21 21 23 24 23 19 24 19
30 31 32 32 29 29 30 29 28 28 28 27 28 30 34 35 34 32 31 37 42 37 34 32 35 32 40 33 35 32 29 31 31 29 28 27 25 26 26 26 25 26 26 25 24 23 22 22 22 23 24 26 31 28
30 30 30 29 26 25 24 25 26 26 27 28 30 32 32 36 36 35 36 36 38 40 39 36 31 33 36 29 32 31 31 32 31 29 28 27 26 25 24 23 24 24 22 22 21 21 23 25 25 25 24 20 23 24
27 26 24 23 21 20 22 22 23 23 24 28 33 34 33 34 38 35 37 35 35 39 44 45 37 41 38 36 36 36 36 35 33 30 28 28 26 25 24 24 24 23 21 19 18 17 19 22 24 19 16 22 26 25
20 21 22 22 21 19 19 19 20 21 21 20 25 33 37 36 37 38 33 36 34 41 45 45 41 39 38 37 37 37 35 35 35 32 29 27 25 22 22 22 21 19 17 16 18 16 15 15 16 17 20 25 28 25
18 20 20 19 20 20 19 17 17 17 18 18 19 23 29 34 35 36 33 36 38 38 40 43 44 39 35 31 32 37 40 37 37 34 31 27 25 22 23 22 19 19 18 18 18 19 16 13 16 18 22 32 28 26
15 15 16 16 18 19 19 19 17 16 15 15 17 17 20 26 31 28 33 36 35 34 35 39 41 38 36 33 33 35 34 35 35 35 33 29 26 25 24 23 20 21 19 18 20 20 17 13 12 12 23 19 27 28
14 16 17 20 21 20 20 21 21 20 18 16 15 15 14 16 22 25 34 38 37 34 34 35 36 36 35 34 34 33 30 35 36 36 34 30 28 27 26 26 23 21 19 18 17 17 19 14 13 16 17 18 25 27
12 12 14 15 16 17 18 20 21 22 23 21 20 19 14 11 12 19 26 33 36 36 36 36 36 37 38 36 36 35 35 37 37 36 34 31 31 31 29 28 26 23 22 20 20 17 16 15 13 14 16 15 17 25
4 4 6 8 11 14 16 18 18 19 22 24 22 20 16 16 17 16 21 27 32 37 39 39 37 36 36 36 36 37 37 40 40 34 31 32 33 32 30 30 29 26 24 23 22 20 18 17 15 13 12 14 17 21
8 8 7 6 6 6 8 7 11 11 12 14 17 20 22 23 24 22 21 20 24 28 34 37 39 39 37 36 34 33 36 37 37 34 32 32 32 31 29 30 30 28 26 24 23 20 19 18 20 19 18 15 13 20
9 8 8 9 11 10 10 12 14 15 17 18 18 16 19 26 31 31 29 27 26 26 27 28 30 35 37 36 36 36 37 37 36 34 33 33 32 32 30 29 29 28 27 26 24 24 22 20 19 20 20 19 16 13
15 19 19 18 17 16 15 7 10 13 15 17 20 21 24 29 29 28 25 28 31 34 32 32 33 33 35 37 37 36 37 38 36 35 34 33 32 30 30 29 29 29 28 27 27 26 25 23 21 22 22 22 20 19
13 16 12 11 14 9 8 12 14 12 9 11 16 21 22 21 23 25 33 34 32 31 34 38 38 38 38 37 38 39 38 37 36 35 35 35 34 32 30 28 28 27 27 27 27 25 25 25 25 24 23 23 22 20

GFSWCAN_500_spd_279.txt.gz
Wind_Speed
27 27 28 26 26 25 24 21 21 22 24 23 24 24 19 18 21 23 23 27 40 32 29 29 28 26 22 23 24 30 21 23 27 32 27 27 33 37 39 39 49 28 31 25 25 29 27 25 25 31 29 30 27 29
28 28 28 26 27 27 26 23 22 21 23 24 24 24 18 17 20 24 25 28 33 31 28 27 27 26 25 24 22 20 24 24 32 32 25 29 41 40 29 38 17 30 44 32 36 39 38 46 13 35 38 33 31 30
27 27 27 28 27 29 27 24 22 22 23 25 24 23 16 15 16 20 25 26 35 30 29 28 26 26 25 24 24 24 24 28 25 30 34 37 62 32 48 8 21 30 40 35 40 29 49 16 31 43 32 34 33 33
28 28 28 29 29 30 27 25 22 21 24 25 23 21 15 14 16 19 19 31 35 30 29 29 27 25 23 23 23 24 25 23 26 29 35 38 38 39 35 33 27 37 43 10 41 36 42 32 42 32 35 37 35 35
29 30 31 31 31 31 29 27 23 20 22 23 21 21 15 14 16 16 19 35 34 33 30 26 26 27 25 23 24 24 24 23 21 20 24 30 37 39 35 32 34 35 41 37 27 40 44 43 45 43 43 38 38 38
31 32 32 32 32 30 31 29 24 21 21 22 20 20 16 16 16 15 21 35 37 33 31 29 25 23 25 26 24 24 24 24 23 22 23 25 28 29 27 31 34 35 36 33 38 36 39 39 40 39 40 39 39 39
31 32 32 33 33 29 28 29 24 21 20 21 19 19 17 17 17 16 18 31 42 34 32 30 28 24 23 26 26 24 24 23 24 23 22 22 25 24 26 24 19 26 32 36 37 37 39 37 36 39 39 39 39 39
30 32 34 33 32 30 27 28 23 21 23 23 22 19 17 17 18 19 18 25 40 35 33 31 30 25 24 24 26 26 25 24 23 23 23 24 25 26 26 21 22 26 32 37 37 36 35 34 37 38 38 39 40 39
32 34 35 34 33 32 27 26 25 25 26 28 24 20 18 18 19 21 21 25 40 40 36 32 31 32 26 25 25 24 26 25 25 25 24 27 25 24 16 22 25 28 31 32 31 29 25 26 28 30 32 33 35 36
34 35 36 35 34 31 29 25 25 25 29 26 25 21 20 19 23 24 26 26 33 45 41 30 30 30 26 27 26 25 25 26 26 24 28 27 24 21 21 22 21 24 27 27 26 21 21 23 25 27 30 32 31 33
36 36 36 35 30 30 27 28 27 28 27 25 25 25 21 22 26 27 28 30 30 35 41 36 35 30 26 27 29 29 27 26 26 25 26 27 23 22 22 18 17 18 21 22 21 20 22 20 21 20 19 19 22 26
38 38 38 36 32 31 28 26 29 28 26 25 26 26 24 24 28 31 32 31 30 27 29 41 38 38 31 26 29 25 28 29 26 21 21 23 22 20 19 16 15 15 15 18 20 19 20 19 20 18 15 15 17 18
40 39 40 35 31 31 31 30 28 27 27 26 26 26 27 27 30 34 31 26 24 26 29 34 43 38 38 31 32 32 33 29 26 25 23 19 27 22 20 18 16 15 12 14 14 14 17 18 18 15 14 13 12 14
42 43 38 33 32 30 30 28 26 27 27 25 26 27 27 28 27 27 25 29 29 23 26 28 37 42 38 37 33 34 28 28 31 25 22 20 26 24 23 21 19 19 15 12 10 11 9 11 13 14 16 17 16 13
46 37 33 31 29 28 28 27 28 29 30 29 27 26 25 24 24 26 28 29 27 23 20 23 32 28 39 42 38 33 32 34 28 24 17 23 22 24 26 24 23 20 19 14 10 10 11 10 13 17 18 18 15 14
36 32 31 29 29 28 29 28 28 30 29 28 26 26 26 25 25 27 28 28 28 24 25 26 30 27 34 39 41 38 34 30 27 23 21 17 21 23 26 26 26 26 23 20 14 10 10 9 9 13 17 14 15 17
29 28 31 32 30 29 30 29 31 32 32 27 22 22 25 24 25 25 29 29 31 29 25 29 33 32 33 38 37 34 31 29 34 30 22 21 22 25 27 28 28 28 27 26 23 19 19 18 14 12 13 16 17 17
29 28 29 31 32 31 33 34 34 34 30 26 23 22 27 26 28 25 31 33 32 32 30 29 31 36 33 30 28 31 34 33 30 26 23 27 28 27 28 28 27 27 28 28 28 25 24 23 21 20 18 16 16 16
31 32 33 34 34 34 35 37 34 34 31 29 24 23 28 28 31 29 33 36 34 34 34 35 36 35 37 37 31 26 25 29 32 32 31 30 29 29 29 29 28 27 26 26 25 24 23 21 21 19 18 17 17 17
32 29 31 33 33 31 33 34 33 34 33 29 25 26 30 32 32 35 37 37 37 37 36 36 36 34 35 36 40 36 29 31 30 31 32 31 30 29 28 29 27 26 25 24 24 25 23 20 20 20 18 19 20 16
33 31 30 31 32 33 32 32 34 34 33 30 26 29 31 32 34 34 37 37 39 38 35 32 37 38 41 38 41 25 27 30 32 34 34 32 30 29 29 28 27 24 23 22 22 23 23 21 21 20 21 21 23 21
30 30 30 31 31 31 31 33 34 32 31 27 28 30 32 32 33 35 37 43 39 33 33 39 38 42 39 44 47 40 36 26 27 30 27 27 29 28 26 26 24 23 21 21 20 22 22 20 20 22 21 23 21 21
31 30 30 32 33 32 29 31 27 27 27 24 27 30 28 32 34 36 38 38 36 35 35 39 44 39 40 42 45 43 45 24 34 36 33 32 29 26 26 25 23 21 20 19 20 20 20 19 21 23 25 26 28 29
32 31 30 31 27 25 28 26 24 23 23 22 22 25 26 28 34 38 37 33 36 36 37 38 40 45 40 37 38 46 42 36 38 39 32 31 28 26 24 25 25 24 23 20 20 20 18 19 17 16 20 23 20 19
23 24 24 22 24 25 25 25 24 23 22 22 22 23 25 27 27 33 37 36 33 37 36 40 39 41 43 39 35 36 39 37 34 32 32 33 32 25 24 26 26 24 23 19 18 18 17 18 15 14 16 16 18 25
18 19 18 19 21 22 22 23 23 22 21 21 20 21 22 23 23 24 27 35 36 39 35 38 39 39 40 45 41 39 40 38 38 39 34 32 33 29 27 27 25 23 22 19 17 17 15 17 16 14 14 16 23 22
13 15 17 20 21 21 21 21 22 22 22 21 21 23 22 19 18 21 24 29 34 37 35 36 38 36 37 44 43 40 38 37 34 35 39 39 34 31 31 29 27 24 21 19 18 16 15 17 16 14 14 16 22 30
7 10 13 15 16 18 19 21 23 25 25 26 25 24 23 19 20 20 20 24 31 32 35 38 37 36 37 41 43 44 38 32 33 35 36 35 34 34 32 30 28 24 23 21 19 17 16 15 15 13 14 15 14 25
7 8 9 10 11 12 16 20 20 19 18 19 20 22 22 22 20 20 16 17 24 32 37 38 39 38 37 41 44 40 38 35 35 33 31 32 35 35 33 32 30 27 26 23 20 18 17 17 16 16 12 12 16 19
8 9 11 11 12 11 11 8 12 14 16 17 20 21 23 25 27 24 20 18 17 24 34 39 38 40 40 39 39 39 38 38 37 34 35 35 33 35 37 34 31 30 28 26 22 20 21 20 19 19 15 13 12 7
11 12 13 14 15 17 17 14 15 17 17 18 19 18 18 21 21 21 23 23 22 20 25 34 37 40 41 41 40 40 39 39 37 36 35 38 41 37 32 32 32 31 30 27 25 24 25 23 20 19 20 19 16 14
13 19 16 11 12 11 9 6 6 7 9 7 8 8 11 15 16 22 21 23 26 27 23 24 29 34 38 40 42 41 40 39 38 37 38 40 41 37 35 33 32 31 28 26 26 27 27 25 23 21 20 21 20 17
12 15 11 10 12 14 12 12 15 15 9 8 10 14 16 18 17 20 25 27 28 27 30 32 29 32 37 39 40 40 39 38 37 37 38 38 37 35 34 33 32 30 28 27 26 26 26 26 26 25 22 21 20 18

GFSWCAN_500_spd_285.txt.gz
Wind_Speed
27 27 27 26 25 24 24 26 26 28 27 25 26 24 24 27 26 24 25 24 21 21 27 36 32 30 26 24 27 34 24 27 27 27 22 20 22 32 33 34 36 38 38 35 38 37 28 38 32 31 35 39 38 41
29 29 28 28 27 26 26 26 26 28 28 27 27 27 24 26 28 24 23 18 14 14 24 24 24 25 28 30 31 29 23 25 24 19 25 27 32 36 33 37 39 42 43 47 43 44 48 48 43 37 38 43 39 37
30 30 30 29 29 27 27 27 26 27 28 28 27 27 25 26 26 23 20 15 13 17 24 23 20 33 34 32 33 31 28 27 30 30 26 27 33 31 39 30 34 46 47 53 49 47 41 36 35 47 42 49 46 43
32 31 31 30 29 28 27 27 27 27 27 28 28 27 25 25 25 23 19 14 15 17 22 27 25 20 29 27 27 27 25 26 25 26 22 23 25 32 33 38 36 44 38 43 52 52 52 51 47 44 51 48 50 49
34 33 33 31 30 27 26 26 27 28 27 27 29 25 24 23 23 25 21 16 16 15 15 21 20 26 32 30 29 27 27 28 25 22 22 21 23 28 30 32 32 31 27 23 24 32 53 50 49 42 46 39 33 40
36 36 34 32 31 28 25 24 25 28 27 28 27 25 24 24 24 24 21 18 16 14 15 19 14 27 27 27 27 25 26 26 26 23 21 21 22 27 29 28 24 23 27 23 13 17 19 22 30 53 42 41 23 24
39 37 35 33 30 29 28 26 26 27 28 27 26 26 24 25 24 25 23 20 19 15 13 8 23 27 25 26 25 25 25 24 23 21 21 23 23 27 26 24 18 20 21 20 21 20 24 23 19 25 25 23 22 28
40 38 37 35 31 28 28 27 26 27 27 27 26 24 25 26 27 28 23 21 19 16 13 14 25 27 30 28 27 27 27 27 26 24 23 23 23 26 24 15 17 15 18 21 21 18 20 22 21 26 27 25 30 28
40 39 37 35 32 31 27 27 28 28 28 28 27 25 25 26 28 29 25 22 18 16 13 15 28 32 31 30 28 28 26 25 25 24 23 27 23 20 16 17 16 17 19 19 20 19 20 22 21 22 25 26 24 26
39 39 39 36 34 33 31 29 29 29 29 29 30 28 26 28 29 29 26 22 16 14 11 15 19 34 34 32 30 29 27 25 22 21 26 26 21 19 17 18 19 18 18 16 16 18 20 20 19 19 22 24 26 26
41 40 40 36 36 34 33 32 31 31 32 32 31 28 27 28 29 29 25 19 14 12 11 19 17 27 36 34 33 32 31 29 27 20 25 21 18 20 23 21 19 18 17 17 16 16 16 14 14 16 20 22 25 37
42 41 40 37 37 36 36 35 35 33 33 33 32 29 29 28 27 25 20 15 13 11 16 20 18 19 31 36 36 34 35 36 28 24 26 19 17 21 19 20 21 19 19 16 13 11 10 11 15 18 20 20 24 24
42 42 40 40 38 38 38 37 37 37 36 35 34 31 28 26 25 20 20 19 17 18 16 16 18 19 22 27 37 39 40 38 32 30 26 19 18 15 12 15 21 17 18 15 12 10 8 11 13 17 20 23 29 28
44 44 42 41 41 40 40 39 39 40 39 37 36 34 28 23 22 23 22 19 19 17 15 16 19 17 19 21 23 28 38 36 36 30 19 17 14 14 14 14 15 19 19 18 15 13 13 15 17 19 20 19 17 15
46 46 44 43 42 43 43 41 42 44 43 43 44 34 21 22 24 24 23 22 20 18 16 15 19 21 21 23 26 27 27 37 37 24 24 22 25 19 17 16 17 21 23 23 22 20 19 19 17 17 16 15 12 14
46 46 42 42 41 42 42 42 46 46 48 48 39 24 19 24 26 24 22 22 20 19 17 19 21 23 26 23 32 26 26 22 26 25 30 25 21 21 19 21 20 20 24 27 23 22 21 20 20 17 16 13 10 10
46 42 41 41 41 41 45 49 50 45 44 39 21 20 23 28 27 28 25 23 22 20 19 20 27 31 29 34 26 28 25 31 28 30 31 25 30 22 23 24 19 23 25 26 23 23 23 23 23 21 18 19 12 11
40 40 41 41 38 43 43 42 38 37 36 24 24 21 26 31 30 25 28 26 24 25 24 27 30 34 36 34 29 22 28 33 29 37 35 38 36 30 27 26 24 23 23 24 23 23 23 23 24 25 25 24 19 15
36 35 36 36 35 37 37 37 39 40 29 26 28 27 29 34 35 32 30 28 29 31 33 33 34 28 31 34 34 32 32 38 34 38 39 41 38 32 37 31 27 24 22 20 19 19 18 19 23 28 30 28 26 24
34 33 34 31 30 34 38 42 34 33 25 28 31 34 37 36 35 36 32 30 32 37 37 33 31 31 32 36 40 40 39 41 39 37 37 36 36 41 17 23 26 25 24 23 20 16 16 18 24 27 30 28 26 27
34 31 31 37 41 39 37 36 33 31 32 31 33 35 32 32 33 34 32 34 39 38 35 33 34 37 36 36 43 46 42 42 41 42 39 39 39 34 39 33 21 24 25 20 19 16 16 19 23 24 24 28 27 28
32 33 35 33 32 38 38 33 31 35 36 35 34 36 31 30 30 31 35 38 38 37 35 34 34 37 37 36 42 46 45 43 38 45 41 32 34 35 10 17 23 28 25 19 17 15 18 20 22 22 21 27 29 26
31 29 26 29 32 33 32 31 34 35 33 32 35 33 32 32 33 36 37 36 35 34 33 33 33 36 36 37 42 44 44 40 37 44 48 43 27 27 32 35 27 29 25 20 18 17 18 20 21 21 21 23 26 26
19 21 23 24 23 25 30 34 36 35 34 34 33 32 34 36 37 38 36 32 31 30 30 30 31 33 36 38 38 38 41 39 37 41 42 44 38 38 39 31 39 32 26 23 19 18 18 17 17 19 18 19 22 24
19 20 22 23 23 24 25 28 31 33 34 35 35 35 33 36 34 34 29 29 31 30 29 31 31 33 35 36 35 34 36 38 37 38 36 39 36 48 49 38 32 33 26 21 20 19 18 17 17 18 18 18 22 23
21 23 21 20 23 25 26 27 27 28 30 31 31 31 31 32 32 27 26 30 29 29 29 31 32 31 34 36 34 31 35 37 38 35 32 33 27 30 34 30 31 27 23 22 19 17 18 18 17 18 19 18 17 19
18 16 16 16 15 17 19 21 23 26 26 26 25 28 31 32 28 25 28 29 27 24 27 29 30 32 31 33 35 29 34 36 33 32 32 35 48 38 27 25 24 21 21 20 17 16 19 18 17 16 17 17 17 19
11 10 8 7 9 13 15 17 20 22 23 25 27 28 30 26 24 26 28 27 26 25 26 25 27 29 30 32 36 32 34 36 32 33 34 32 35 37 34 29 25 22 23 22 20 19 18 17 19 20 17 16 16 18
6 6 7 11 11 11 12 15 18 22 24 26 26 25 24 25 26 26 27 30 27 24 24 24 23 25 29 30 32 35 34 34 32 32 31 33 31 36 33 32 32 32 28 26 24 20 19 21 21 18 17 16 13 14
5 1 4 7 8 7 9 10 12 15 16 18 22 22 21 21 23 24 26 28 26 24 25 24 23 24 24 26 31 35 35 34 33 34 32 35 33 37 38 39 39 35 30 28 23 22 23 24 22 19 17 15 12 12
1 5 7 7 3 6 9 9 9 11 13 14 16 14 13 17 21 20 20 21 22 21 24 25 23 22 22 24 29 33 35 33 32 31 33 40 39 36 33 37 37 38 35 32 27 25 26 26 23 20 18 15 14 12
3 6 8 5 6 9 12 11 11 11 10 10 11 10 6 2 3 8 12 17 18 17 18 23 24 20 17 22 29 33 31 33 38 42 37 38 38 39 42 38 35 35 34 32 30 29 30 27 25 22 19 15 15 13
8 7 4 4 6 8 9 11 13 12 11 10 13 14 12 9 10 11 8 8 8 10 13 18 19 22 20 16 24 35 36 36 38 41 41 40 40 39 38 34 32 32 27 24 26 28 29 28 26 24 21 19 17 14

GFSWCAN_500_spd_288.txt.gz
Wind_Speed
23 23 24 23 24 24 23 23 22 22 23 24 24 24 23 23 22 23 23 21 21 18 26 31 28 30 33 32 30 29 27 30 31 25 25 27 29 30 37 41 35 43 46 46 46 37 36 26 33 38 36 32 31 34
26 25 25 25 25 25 25 24 23 22 23 24 25 24 24 24 22 23 22 20 20 17 19 18 18 21 28 30 30 34 33 30 27 25 27 25 25 28 28 30 37 38 45 44 35 38 43 29 34 45 41 35 34 36
28 27 26 26 26 26 26 25 24 22 22 23 25 25 25 24 22 22 22 22 19 15 18 18 18 21 23 28 31 30 27 28 31 25 25 22 20 18 23 26 28 33 39 40 46 46 43 36 39 43 44 41 43 33
28 28 28 28 27 27 27 26 24 22 21 21 24 25 25 23 23 21 22 22 20 16 15 20 20 20 23 21 23 23 25 30 30 28 27 27 28 25 25 23 24 27 29 28 31 32 41 48 48 51 49 58 42 42
31 31 31 30 30 29 28 27 24 22 21 21 22 24 24 23 22 22 22 22 22 18 16 15 11 22 21 22 27 29 30 32 30 28 25 20 24 25 23 24 19 22 21 22 24 23 25 24 46 51 50 45 42 43
34 34 33 33 32 32 30 28 26 24 23 22 21 23 23 24 22 22 22 21 22 18 16 14 9 18 21 24 29 30 30 30 30 28 24 21 19 26 25 20 14 16 18 18 19 23 20 16 25 30 37 46 49 42
36 36 35 35 33 33 32 29 28 25 23 22 22 23 23 24 24 23 21 23 22 18 15 14 14 17 23 26 31 30 28 27 29 28 24 22 22 26 25 12 13 20 20 19 17 18 19 14 5 4 13 23 32 20
39 38 37 35 35 32 33 32 30 27 25 23 23 23 23 25 26 24 24 23 22 17 14 14 11 11 16 24 28 27 26 25 24 24 22 21 23 25 18 11 18 20 20 16 16 17 20 17 15 15 19 22 23 22
40 40 39 36 35 33 33 32 31 29 27 25 23 23 24 25 26 24 24 24 20 15 10 15 14 14 21 24 25 26 25 25 25 23 23 27 24 21 15 18 18 17 17 15 15 10 11 12 14 12 10 11 15 18
42 40 39 37 35 35 35 33 31 31 30 28 25 24 24 26 26 24 23 22 18 15 14 19 14 17 22 30 28 28 28 26 25 23 25 22 18 18 19 19 18 18 17 16 14 13 11 10 13 13 7 12 15 19
43 42 40 40 39 39 37 36 33 32 32 30 28 26 25 25 26 24 22 23 21 18 19 19 15 20 17 21 32 34 32 29 26 22 22 15 9 17 19 19 19 19 18 15 15 15 13 14 15 11 9 15 17 18
44 43 42 41 41 41 39 36 33 33 34 33 31 28 26 25 25 23 23 25 21 19 20 19 18 19 19 17 24 34 34 35 27 26 23 14 16 15 16 17 19 19 19 17 16 16 13 11 10 8 9 16 18 19
46 45 44 42 41 40 40 37 35 35 36 35 33 30 27 25 27 26 25 25 21 18 16 17 19 20 19 18 17 24 30 35 30 32 24 12 20 19 16 14 16 19 20 18 17 15 14 14 12 9 11 15 14 13
49 48 46 45 43 42 41 40 41 38 38 37 36 32 28 27 31 33 28 24 23 19 18 19 18 18 18 18 18 19 21 26 31 32 23 24 25 18 18 12 13 12 18 20 20 20 20 18 14 12 12 12 8 9
48 47 46 44 43 44 44 43 42 41 42 41 38 33 26 29 38 34 27 24 22 20 20 21 19 19 23 20 19 20 18 20 21 23 31 29 28 26 25 18 14 16 18 22 22 22 22 22 20 17 14 7 6 9
48 47 43 42 43 44 44 42 47 45 46 45 38 30 30 33 36 31 27 24 23 20 21 24 23 23 23 26 26 28 24 20 22 20 29 34 34 32 29 25 24 18 22 25 26 24 24 24 21 15 14 10 6 10
46 42 43 44 43 43 43 44 45 46 49 43 28 29 30 31 30 34 32 26 26 24 25 28 25 24 20 26 28 29 24 25 24 28 24 28 36 36 35 32 32 26 27 21 24 26 24 23 21 19 19 17 13 14
41 41 43 43 41 41 42 43 45 47 44 33 30 26 30 31 29 34 33 30 26 28 31 30 27 22 20 19 24 28 34 34 36 34 32 33 31 33 37 38 39 27 26 22 24 28 29 27 26 26 25 24 20 19
38 39 39 40 39 40 41 42 44 46 39 33 25 28 32 32 33 34 33 33 33 32 34 34 30 21 20 20 26 32 39 40 38 34 34 36 32 33 45 37 28 27 28 24 27 32 32 30 30 28 27 26 22 22
36 36 34 33 34 37 39 42 41 43 39 35 28 31 35 30 34 35 32 34 37 39 38 28 24 23 22 24 28 29 33 39 44 39 40 34 30 28 28 32 32 26 31 24 28 32 32 30 27 24 25 24 23 23
32 31 30 29 30 34 39 41 37 35 32 29 32 33 30 32 30 31 33 41 44 38 34 31 31 29 30 30 32 31 32 37 40 42 39 33 33 28 26 29 29 34 37 25 27 30 30 29 24 23 23 23 23 21
29 28 28 31 32 34 37 35 37 38 40 34 32 35 35 34 33 32 36 38 36 31 32 31 32 33 36 34 35 36 34 35 39 41 42 40 33 34 30 24 21 35 28 23 28 29 31 30 25 23 22 21 23 21
28 27 28 29 29 32 33 35 36 36 43 42 36 34 33 35 37 36 34 33 32 33 34 33 33 36 38 37 39 41 35 36 38 37 38 40 37 32 28 23 24 20 28 34 31 29 28 30 27 20 20 22 21 19
28 27 27 28 28 30 29 29 29 29 31 31 33 33 33 35 35 35 33 33 35 38 38 35 36 37 38 38 37 37 36 37 36 36 34 36 35 31 31 25 18 33 27 28 32 32 30 27 22 18 17 19 20 18
27 26 25 20 19 21 22 23 24 26 27 30 33 33 31 33 35 36 35 36 39 39 39 39 39 37 35 35 34 34 34 34 33 30 33 34 33 30 29 31 32 27 24 33 26 25 26 23 19 19 17 15 17 18
21 22 19 14 15 18 22 24 26 27 27 29 28 30 33 36 38 35 34 37 38 39 37 34 32 32 32 32 31 29 31 31 31 29 30 30 31 28 26 31 33 31 32 32 32 29 28 21 18 20 18 15 17 17
20 18 17 18 18 19 19 20 22 21 20 20 22 25 27 29 27 28 31 33 33 33 32 32 33 33 32 31 29 30 28 31 28 27 29 29 28 28 25 31 30 32 35 33 30 29 26 22 22 20 22 18 17 15
16 16 17 16 12 13 13 14 16 18 18 20 23 25 26 24 20 24 27 26 29 33 32 29 30 29 30 30 28 26 27 27 28 29 28 27 25 24 27 38 26 27 32 38 29 28 29 24 19 19 22 19 16 14
13 12 10 10 11 10 11 14 13 13 14 16 18 19 20 21 20 23 26 26 26 26 27 25 27 26 28 26 23 25 27 28 30 30 28 30 33 41 46 42 36 28 25 26 31 32 25 22 20 20 21 19 16 14
11 9 7 5 7 9 8 9 11 12 12 14 16 16 15 16 19 23 24 25 24 24 21 21 24 27 26 23 20 22 27 27 29 30 30 34 36 42 38 44 45 30 30 29 28 26 24 23 22 22 21 19 16 12
7 4 4 5 6 6 7 9 10 10 11 10 12 13 13 15 13 13 16 20 23 24 22 20 24 28 27 24 21 20 22 24 30 32 32 36 38 39 35 35 35 32 30 34 30 26 29 27 24 22 22 19 16 14
4 6 8 7 7 6 6 5 6 8 10 9 9 10 11 10 12 15 11 8 8 12 14 17 22 26 28 27 24 20 20 24 31 34 33 36 38 40 42 44 41 39 36 34 34 34 30 24 23 24 23 20 18 14
2 4 5 6 7 8 7 7 7 10 12 13 13 12 11 10 9 9 10 8 8 9 10 12 17 20 24 27 25 20 20 26 32 34 33 36 35 39 42 42 40 40 40 38 37 33 29 26 25 25 24 24 21 19

GFSWCAN_500_spd_291.txt.gz
Wind_Speed
22 21 21 21 20 20 20 20 21 20 20 19 19 19 20 22 22 21 19 20 20 20 25 23 23 24 30 34 36 35 37 37 33 29 32 31 28 28 25 26 30 37 39 39 43 47 43 34 27 27 28 34 32 27
23 23 23 23 22 22 22 22 22 22 22 20 19 19 19 21 22 20 19 19 20 22 22 20 16 15 18 26 30 33 35 37 37 36 32 29 21 19 21 22 22 27 38 33 34 39 44 43 39 33 32 36 37 34
26 25 25 24 24 24 24 24 24 24 24 21 19 19 19 19 20 20 19 19 19 21 21 19 13 14 16 20 22 26 29 34 36 35 34 31 29 22 18 16 18 20 22 28 34 35 34 39 41 36 39 41 38 44
29 29 28 26 26 26 26 26 26 25 25 24 20 19 20 19 19 20 19 20 20 21 20 17 14 15 17 15 11 20 27 31 32 34 32 27 25 24 17 18 19 19 19 22 25 27 28 33 36 38 43 41 42 43
33 32 31 30 30 29 28 29 28 27 25 25 24 21 20 20 20 20 19 20 20 21 21 19 14 17 12 17 18 20 27 29 31 33 30 24 25 23 23 24 18 22 21 22 24 28 25 30 30 27 32 44 39 39
38 36 35 33 32 31 30 31 30 28 27 26 25 24 21 21 21 21 20 20 21 21 20 19 15 13 9 17 21 22 26 32 32 32 28 23 22 26 24 16 13 18 20 23 24 25 27 27 29 26 29 25 29 43
41 40 38 37 35 33 33 32 31 29 27 26 25 24 23 21 22 21 21 20 22 22 22 20 14 14 14 17 24 29 29 32 31 28 24 23 23 27 23 4 15 20 24 23 22 22 21 24 29 27 19 18 30 37
43 42 41 39 39 36 35 34 32 31 29 27 25 24 23 22 22 22 21 21 23 21 24 24 16 13 13 11 19 26 26 29 29 26 24 22 23 23 6 9 16 21 22 19 17 19 19 24 26 19 16 16 17 17
43 43 42 39 38 38 36 35 33 32 30 29 27 25 24 23 23 23 21 21 23 24 22 26 21 15 12 10 10 18 23 23 23 22 24 23 21 11 9 15 18 20 18 18 18 15 14 17 22 23 21 23 25 22
45 44 41 40 39 39 38 36 34 33 33 32 30 27 25 25 24 23 21 22 23 23 22 23 18 16 14 13 16 18 22 25 22 23 24 19 14 16 18 21 21 21 20 19 17 15 13 13 17 19 19 20 21 21
46 45 44 42 41 40 39 38 36 36 35 33 32 29 25 26 26 24 21 24 23 24 21 18 16 16 14 16 19 26 26 27 26 24 23 17 17 22 21 19 21 22 22 19 17 17 18 15 16 17 18 17 17 15
48 47 45 44 42 42 41 39 38 37 36 34 31 28 26 26 26 25 24 25 24 25 23 19 16 15 15 17 20 22 27 33 30 28 25 19 26 21 19 19 20 21 21 21 21 19 20 18 16 16 13 12 12 12
52 50 48 45 44 43 42 40 40 38 37 34 32 28 26 27 27 26 27 28 29 29 25 21 18 16 16 17 19 20 22 25 29 32 27 25 26 26 24 22 22 23 22 20 22 19 21 20 19 18 16 13 9 10
55 52 50 49 46 45 43 42 42 41 40 38 35 31 29 27 25 28 28 31 32 34 26 23 20 18 18 18 19 21 22 23 26 29 29 32 32 30 29 26 24 23 23 23 23 22 23 22 22 21 17 11 8 10
54 52 50 49 47 46 46 45 45 43 42 41 38 34 29 28 29 32 32 35 37 34 26 25 23 20 21 21 21 22 22 25 24 23 26 36 38 34 33 28 26 26 26 26 24 26 27 25 24 22 16 12 13 14
51 51 47 46 46 46 46 46 45 44 46 44 39 31 29 32 35 34 35 40 39 31 29 29 27 23 21 22 22 24 25 22 20 21 22 26 30 38 38 37 33 30 28 26 21 23 27 27 26 24 22 19 20 19
48 45 44 46 46 45 45 46 44 45 48 46 34 29 35 36 37 40 40 38 34 30 31 33 31 28 22 23 21 24 25 27 25 26 27 26 20 29 39 38 38 36 35 32 29 28 28 30 31 28 27 25 24 25
42 41 43 44 44 44 44 44 46 49 48 39 30 32 37 39 39 39 41 37 33 33 33 35 34 30 25 21 20 23 23 27 29 29 30 25 22 21 25 37 40 38 36 38 42 34 30 31 30 30 31 29 26 23
39 43 44 43 42 42 43 43 45 47 40 36 34 33 36 38 37 36 39 40 37 38 39 37 35 24 23 24 23 25 23 22 25 27 30 32 30 27 28 26 29 35 40 44 36 31 37 28 25 25 28 27 25 23
42 42 41 42 42 42 41 44 43 45 41 32 32 34 38 36 36 36 37 41 41 43 44 32 23 25 26 28 29 27 27 27 25 23 24 31 35 33 30 27 26 33 32 41 38 32 29 24 25 23 23 24 24 22
38 38 38 38 38 36 37 39 38 39 36 34 36 38 38 40 40 39 37 42 46 43 38 33 33 31 33 34 33 33 32 30 29 29 26 26 31 32 31 32 27 29 28 30 34 37 30 23 20 22 22 23 22 19
33 33 33 32 33 33 36 36 35 35 35 32 33 37 38 37 34 36 38 38 35 31 36 37 34 32 36 37 38 41 38 35 30 29 31 31 29 31 33 30 28 28 24 22 25 33 23 22 21 22 21 20 20 19
29 31 31 31 32 34 34 32 32 30 31 31 34 35 37 37 36 37 36 32 33 38 38 38 36 33 33 35 39 39 37 36 34 33 33 32 30 28 31 33 27 25 24 19 22 24 29 25 24 25 20 18 19 19
28 28 29 31 32 30 22 23 25 28 32 31 31 32 33 34 35 38 36 31 36 39 40 39 38 36 35 35 34 33 33 35 35 34 32 33 32 31 29 30 32 24 27 25 19 21 21 25 24 25 20 19 19 19
29 31 31 25 21 19 19 22 25 27 26 29 27 24 25 31 33 33 33 39 37 37 37 37 37 37 38 39 40 38 35 35 34 32 33 33 32 32 30 29 33 29 30 28 29 24 28 27 25 23 21 20 19 18
29 25 22 18 19 20 20 21 25 28 29 27 25 27 30 30 30 29 33 36 36 37 38 40 39 39 38 39 39 41 39 38 35 32 29 31 32 32 31 31 33 32 36 27 29 26 26 24 21 21 22 21 20 19
21 16 17 20 22 21 18 20 22 22 23 24 25 28 28 25 23 25 29 32 33 34 36 38 38 39 38 37 35 35 35 36 33 28 30 32 31 31 30 33 32 32 37 37 31 27 26 26 21 23 24 22 18 18
17 16 17 22 20 19 19 20 17 15 14 17 19 19 18 18 18 27 31 31 30 30 30 29 30 33 34 35 34 33 33 32 32 32 30 29 30 28 31 36 34 35 40 37 32 27 26 26 26 25 22 21 19 18
15 18 16 17 17 14 12 14 15 16 18 14 12 16 19 20 21 24 27 30 32 32 29 27 27 29 30 32 30 30 31 31 31 32 31 31 31 30 35 38 38 38 43 42 35 32 32 33 29 24 23 22 20 17
16 13 12 10 9 12 16 13 12 15 16 17 18 16 17 19 20 21 22 23 27 29 28 28 29 32 29 29 31 30 31 30 30 29 32 32 31 33 37 39 39 31 32 40 38 42 38 35 29 27 26 23 22 19
12 11 9 7 9 11 13 12 13 15 17 16 17 14 15 17 18 21 18 16 17 20 22 21 21 26 28 27 29 30 30 28 29 30 32 33 32 38 45 45 41 48 38 29 34 43 41 34 29 28 26 23 22 20
6 5 6 8 10 11 12 12 12 11 10 11 13 12 14 15 16 20 18 10 12 12 11 14 18 22 26 28 24 26 27 27 26 29 31 34 35 41 50 51 42 36 41 39 36 37 37 32 31 31 27 23 22 22
2 3 5 6 9 11 12 14 15 15 15 14 16 14 13 14 15 16 17 15 15 16 15 12 12 15 20 25 25 25 28 27 26 26 29 36 39 41 43 40 38 36 37 33 36 35 32 30 30 29 26 24 24 24